Home   Weather   Zerbst/Anhalt   Past weeks

Flag for Germany Past Weather in Zerbst/Anhalt, Saxony-Anhalt, Germany — Yesterday and Last 2 Weeks

Now
27 °F

Mostly cloudy.


Feels Like: 18 °F
Forecast: 16 / 27 °F
Wind: 8 mph from North

Location: Leipzig-Schkeuditz

Current Time: Jan 16, 2017 at 11:01:23 pm

Latest Report: Jan 16, 2017 at 10:20 pm


Visibility: N/A

Pressure: 30.42 "Hg

Humidity: 86%

Dew Point: 23 °F

Location of Zerbst/AnhaltLocation

Past Weather in Zerbst/Anhalt — Graph

°F

Zerbst/Anhalt Temperature Yesterday

Maximum temperature yesterday: 34 °F (at 11:50 am)
Minimum temperature yesterday: 30 °F (at 4:50 am)
Average temperature yesterday: 32 °F

High & Low Weather Summary for the Past Weeks

 TemperatureHumidityPressure
High39 °F (Jan 4, 10:50 am)100% (Jan 2, 8:20 am)30.74 "Hg (Jan 2, 8:20 am)
Low12 °F (Jan 7, 12:20 am)59% (Jan 7, 2:50 pm)29.00 "Hg (Jan 13, 6:20 am)
Average30 °F87%30.01 "Hg
* Reported Jan 1 9:20 pm — Jan 16 9:50 pm, Zerbst/Anhalt, Weather by CustomWeather, © 2017

Note: Actual official high and low records may vary slightly from our data, if they occured in-between our weather recording intervals... More about our weather records

Advertising

Zerbst/Anhalt Weather History for the Previous 24 Hours

Scroll right to see more
 ConditionsComfort  
Time TempWeatherWind HumidityBarometerVisibility
9:50 pm
Mon, Jan 16
27 °FPassing clouds.10 mph93%30.39 "HgN/A
9:20 pm27 °FPassing clouds.9 mph93%30.39 "HgN/A
8:50 pm27 °FMostly cloudy.10 mph93%30.39 "HgN/A
8:20 pm27 °FLight snow. Mostly cloudy.8 mph86%30.36 "HgN/A
7:50 pm27 °FLight snow. Passing clouds.5 mph86%30.36 "HgN/A
7:20 pm27 °FLight snow. Overcast.7 mph86%30.36 "HgN/A
6:50 pm25 °FLight snow. Overcast.5 mph93%30.36 "HgN/A
6:20 pm25 °FOvercast.7 mph93%30.33 "HgN/A
5:50 pm25 °FLow clouds.10 mph93%30.33 "HgN/A
5:20 pm25 °FPassing clouds.10 mph93%30.33 "HgN/A
4:50 pm25 °FPartly cloudy.10 mph93%30.33 "HgN/A
4:20 pm27 °FLow clouds.8 mph86%30.30 "HgN/A
3:50 pm27 °FBroken clouds.10 mph86%30.30 "HgN/A
3:20 pm27 °FPartly sunny.13 mph86%30.30 "HgN/A
2:50 pm25 °FPartly sunny.12 mph100%30.30 "HgN/A
2:20 pm25 °FPartly sunny.13 mph100%30.27 "Hg5 mi
1:50 pm25 °FPartly sunny.10 mph100%30.27 "Hg4 mi
1:20 pm25 °FIce fog.12 mph100%30.27 "Hg2 mi
12:50 pm25 °FIce fog.10 mph100%30.27 "Hg2 mi
12:20 pm25 °FLight snow. Ice fog.10 mph93%30.27 "Hg1 mi
11:50 am25 °FLight snow. Ice fog.13 mph93%30.27 "Hg1 mi
11:20 am25 °FLight snow. Ice fog.9 mph93%30.27 "Hg1 mi
10:50 am25 °FIce fog.9 mph100%30.24 "Hg1 mi
10:20 am25 °FLight snow. Ice fog.14 mph93%30.24 "Hg1 mi
9:50 am25 °FLight snow. Partly sunny.13 mph93%30.24 "Hg4 mi
9:20 am25 °FLight snow. Partly sunny.12 mph100%30.24 "Hg6 mi
8:50 am25 °FPartly sunny.10 mph100%30.21 "Hg6 mi
8:20 am25 °FBroken clouds.10 mph100%30.21 "HgN/A
7:50 am27 °FPassing clouds.10 mph93%30.18 "HgN/A
7:20 am27 °FPassing clouds.10 mph93%30.18 "HgN/A
6:50 am27 °FPassing clouds.10 mph93%30.18 "HgN/A
6:20 am27 °FPassing clouds.12 mph93%30.18 "HgN/A
5:50 am28 °FPassing clouds.8 mph86%30.15 "HgN/A
5:20 am28 °FPassing clouds.7 mph86%30.15 "HgN/A
4:50 am28 °FPassing clouds.8 mph93%30.15 "HgN/A
4:20 am28 °FPassing clouds.10 mph93%30.15 "HgN/A
3:50 am28 °FPassing clouds.12 mph93%30.15 "HgN/A
3:20 am30 °FPassing clouds.10 mph86%30.15 "HgN/A
2:50 am30 °FPassing clouds.12 mph86%30.15 "HgN/A
2:20 am30 °FPassing clouds.9 mph86%30.12 "HgN/A
1:50 am30 °FPassing clouds.9 mph80%30.12 "HgN/A
1:20 am30 °FPassing clouds.12 mph75%30.12 "HgN/A
12:50 am30 °FPassing clouds.13 mph80%30.12 "HgN/A
12:20 am30 °FPassing clouds.15 mph80%30.12 "HgN/A
11:50 pm
Sun, Jan 15
30 °FPassing clouds.13 mph80%30.12 "HgN/A
11:20 pm30 °FPassing clouds.14 mph86%30.12 "HgN/A
Weather by CustomWeather, © 2017

See weather overviewHow to use our weather pages